Dewpoint
65 65 65 65 65 65 65 65 65 65 66 65 65 65 64 65 64 64 63 62 62 61 60 58 60 61 62 63 63 63 65 65 64 64 65 65 66 67 67 67 67 66 65 64 63 64 65 64 63 65 64 63 62 62 62 61 61 61 61 61 60 60 60 61 61 60 60 60 59 59 60 59 59 59 59 59 59 59 59 59 59 58 58 58 58
65 65 65 65 65 65 65 64 65 64 65 64 65 65 64 65 65 65 65 64 63 62 61 59 58 61 63 63 64 64 63 64 65 63 64 65 66 66 68 68 68 67 66 64 63 63 63 62 62 62 64 63 63 63 62 62 62 61 61 61 61 61 60 60 61 61 61 61 60 60 60 60 60 59 59 59 59 59 59 59 58 58 58 58 57
65 65 65 65 65 65 64 64 65 65 65 65 65 65 64 64 64 64 64 65 64 63 62 60 60 62 64 64 64 64 62 64 66 64 64 65 65 65 67 68 68 67 67 66 65 63 63 63 61 61 65 65 64 64 63 63 63 62 62 61 61 61 61 60 59 60 60 60 59 60 59 59 59 60 59 59 59 59 59 58 58 58 57 58 57
65 65 65 65 65 64 65 65 64 65 65 64 65 65 65 65 65 65 65 64 64 63 62 61 61 61 62 64 65 65 65 65 65 65 64 64 65 65 65 66 67 67 67 67 67 65 62 62 62 61 62 66 66 64 64 63 63 63 63 62 62 61 61 61 60 59 60 60 59 59 59 58 58 58 59 59 58 58 58 58 58 58 58 58 57
65 65 66 65 65 64 64 65 65 65 65 65 65 65 65 65 65 65 65 65 64 62 62 62 61 62 63 64 65 66 66 65 65 66 66 64 64 65 65 65 65 66 67 67 67 67 65 63 62 62 61 64 64 64 63 61 61 63 64 63 62 62 62 61 61 60 60 60 60 59 59 59 58 57 58 58 58 58 58 58 58 58 58 58 57
65 64 64 63 63 63 63 64 65 66 65 64 65 64 65 65 64 65 66 64 63 62 62 62 62 62 63 64 64 65 65 65 65 65 65 64 64 63 63 64 64 65 66 67 67 67 66 65 63 62 62 61 61 62 61 60 60 63 64 64 63 63 63 62 61 61 60 60 60 60 59 59 59 58 58 58 58 58 57 57 57 57 57 57 57
66 64 63 63 63 63 63 64 65 65 64 64 65 64 65 65 64 64 64 63 63 63 62 61 62 63 64 64 64 66 65 65 66 64 64 65 65 64 63 63 63 64 65 64 67 66 66 66 63 63 62 61 61 61 61 62 61 61 64 65 64 64 64 63 62 62 61 61 60 60 60 60 59 59 59 58 57 57 57 58 57 57 57 57 57
65 64 63 63 63 62 63 64 65 65 64 64 64 64 65 64 64 64 63 63 63 62 62 61 62 63 64 64 64 64 64 64 65 65 64 64 63 64 64 64 63 64 65 64 64 66 67 67 67 67 64 62 62 61 61 62 63 62 62 65 65 65 65 64 63 63 62 61 61 60 61 60 59 59 59 59 58 57 56 58 58 57 57 57 57
64 65 64 63 63 64 63 64 65 64 63 63 64 64 63 64 63 63 63 62 63 62 62 62 62 63 63 63 64 64 63 64 64 63 64 63 63 64 64 63 64 68 65 64 64 65 67 68 67 67 67 66 65 64 64 65 65 64 64 64 66 65 65 65 64 63 63 62 62 61 61 60 61 60 59 59 59 58 58 58 58 57 57 57 57
64 64 64 64 64 64 63 63 64 64 63 63 62 63 63 63 63 62 63 62 62 62 61 62 63 62 62 63 63 63 64 64 64 65 64 64 64 64 64 64 65 64 65 64 65 65 65 66 67 67 67 66 66 66 64 65 65 64 65 64 64 65 65 65 65 64 64 63 63 62 62 62 61 61 60 60 59 58 58 58 57 58 57 57 58
65 65 64 63 63 63 63 63 63 64 64 62 61 63 62 62 63 62 63 63 62 61 61 61 62 62 63 63 63 63 64 64 64 63 63 63 63 65 64 64 64 64 64 65 65 65 64 64 64 64 65 67 66 65 65 66 65 64 64 65 65 64 65 65 65 65 64 64 64 64 63 64 62 61 61 61 60 60 59 59 58 58 58 57 57
65 64 63 63 62 63 63 63 63 63 62 61 60 62 62 61 62 62 63 63 61 61 61 61 61 61 61 62 63 63 63 64 64 63 63 63 63 63 63 64 64 63 64 64 64 64 64 64 65 65 65 66 67 66 65 65 65 66 65 66 65 65 65 65 65 65 65 65 65 64 65 64 63 63 62 62 61 60 60 59 59 58 58 58 57
66 65 64 66 63 63 63 63 63 63 61 60 60 61 61 61 62 62 62 61 61 62 61 61 60 59 60 60 60 62 62 63 62 63 63 64 63 63 63 63 63 63 63 63 64 64 64 64 64 65 65 65 65 64 64 63 63 63 64 65 65 65 65 64 64 65 65 65 65 65 65 65 65 64 63 63 63 62 61 60 60 59 58 58 58
66 65 65 64 63 63 63 62 62 63 62 62 61 62 61 62 62 61 61 61 60 62 62 59 57 57 57 56 57 59 62 61 62 62 63 63 63 63 63 63 63 63 63 63 63 64 64 64 64 65 65 65 64 63 61 59 60 61 62 63 64 65 66 65 65 65 65 64 64 65 64 64 64 65 65 64 64 63 62 61 61 60 59 59 58
65 65 64 64 63 62 63 62 62 64 62 61 62 62 62 62 62 61 61 61 61 62 61 60 57 59 58 56 54 54 57 59 61 61 62 61 62 62 64 64 65 64 64 63 63 63 64 64 65 65 64 64 64 61 59 58 58 59 60 61 63 64 65 64 64 64 64 65 64 64 64 65 66 65 64 64 64 64 64 63 62 61 60 60 59
64 64 64 65 64 63 63 62 62 63 62 62 61 62 61 61 61 61 61 60 59 60 62 61 59 59 54 54 54 54 53 55 57 60 62 62 62 62 63 63 63 65 64 63 63 62 63 63 64 64 64 64 62 61 58 55 55 56 58 59 60 62 63 63 63 62 63 64 64 64 65 64 64 64 64 64 64 64 64 64 63 64 61 61 60
64 64 64 63 63 63 63 63 63 63 63 62 62 62 61 61 61 61 59 59 58 58 59 61 60 60 57 54 53 52 52 55 57 58 60 61 62 62 62 63 64 63 63 63 62 61 62 62 63 62 59 55 53 52 52 52 52 56 54 57 58 60 63 65 64 63 62 63 64 64 64 64 65 64 64 64 64 63 64 64 64 64 63 62 61
61 63 64 63 62 62 63 63 63 64 63 63 63 62 62 62 61 61 60 59 58 58 58 60 61 62 61 58 55 53 55 56 54 52 58 59 59 62 62 62 61 62 61 61 61 61 61 60 60 57 55 53 51 51 52 53 55 53 52 53 54 55 56 60 64 64 65 65 65 64 64 65 64 63 64 64 64 64 63 62 64 64 64 63 62
60 60 61 62 62 62 63 63 63 63 64 63 62 62 63 63 63 62 61 61 59 58 58 58 60 60 61 61 61 59 58 56 52 53 51 52 54 57 58 60 60 59 58 58 59 57 57 57 57 57 56 55 54 52 51 51 52 53 54 53 53 52 53 54 59 63 65 65 65 64 64 63 63 62 62 62 63 64 64 64 64 64 64 63 63
59 58 60 60 60 61 63 63 62 62 63 62 62 62 62 63 63 62 62 61 60 59 58 59 59 58 61 60 59 60 59 57 55 52 49 47 47 50 53 55 55 54 55 53 54 53 51 50 50 50 51 52 52 51 50 49 49 50 51 52 52 52 51 52 52 53 59 61 62 61 61 61 61 60 61 61 61 62 62 63 62 63 63 63 63
56 58 58 59 59 58 59 59 59 62 62 61 61 62 62 62 61 61 61 61 61 60 59 59 60 59 58 57 59 59 59 60 59 53 50 47 48 48 49 52 51 50 50 52 53 51 50 50 49 48 49 48 48 49 48 47 48 50 51 51 50 51 49 50 49 50 52 59 58 59 58 58 59 58 57 57 57 58 59 61 62 62 63 63 62
57 58 57 58 60 60 59 59 58 59 60 61 61 62 62 62 62 62 62 60 60 60 59 59 60 60 59 58 57 56 56 56 56 54 53 51 49 48 49 47 46 48 49 49 50 51 49 48 47 46 46 45 45 45 46 47 47 49 50 51 50 50 49 48 45 49 52 55 57 57 57 56 56 56 56 56 56 56 56 56 57 59 61 62 61
58 58 57 59 59 60 58 58 58 60 59 59 59 61 62 62 62 62 62 61 60 60 60 60 59 59 59 58 57 57 56 54 55 55 53 51 49 49 47 46 45 45 48 49 48 48 48 48 47 46 45 45 44 44 44 46 50 51 51 51 51 50 49 46 45 46 49 53 55 55 55 55 54 54 54 54 54 53 54 54 54 54 55 57 57
56 54 54 58 58 57 58 57 57 58 58 59 59 60 60 61 62 61 61 61 60 60 60 59 59 59 58 58 58 58 56 56 57 57 53 52 50 48 46 46 46 47 50 48 46 47 47 47 47 46 46 45 45 46 48 48 49 49 48 50 49 49 49 48 46 45 45 48 51 52 52 52 52 52 53 53 53 52 52 52 52 52 52 52 54
56 55 54 56 57 57 57 56 55 55 56 57 58 59 59 59 60 61 61 60 60 60 60 59 59 59 58 58 59 58 57 58 58 57 55 54 50 48 46 46 45 44 44 42 40 40 44 46 46 46 45 45 45 45 45 46 48 49 49 50 50 49 48 48 48 47 47 45 47 50 51 51 51 51 51 51 51 52 50 50 48 48 48 49 51
54 53 55 56 57 58 58 57 56 56 56 57 57 57 58 58 59 59 60 60 60 60 60 59 59 58 59 59 59 58 59 59 58 58 57 54 50 47 45 43 41 37 37 34 33 33 36 41 44 45 45 45 46 47 47 46 48 48 48 47 48 48 48 48 48 47 45 44 44 46 47 48 48 48 49 50 49 48 49 48 48 48 47 47 48
56 56 57 57 58 57 54 53 53 53 53 55 56 55 56 57 58 58 58 59 59 59 59 59 60 59 58 58 58 58 58 59 58 56 56 55 52 47 42 40 39 38 37 31 31 33 34 39 42 44 46 48 47 47 47 47 48 49 49 45 45 48 48 49 48 46 45 43 43 43 44 45 47 47 47 47 48 48 47 48 48 47 47 47 48
54 55 57 54 54 54 55 55 55 56 56 56 54 54 54 54 55 55 56 57 53 53 54 54 55 56 56 55 55 56 57 58 57 56 55 55 55 46 43 39 37 37 36 31 30 31 35 35 38 41 43 46 47 48 49 48 48 51 48 43 44 46 47 47 48 48 47 46 44 43 43 44 45 46 47 47 46 46 46 47 48 47 47 47 47
56 56 56 56 55 54 53 54 54 54 54 55 54 53 52 51 51 51 51 52 52 50 49 49 49 48 48 48 50 51 52 54 53 53 53 53 54 48 43 40 41 36 32 32 32 31 35 35 34 37 39 42 46 47 47 46 48 49 47 46 44 43 47 46 46 46 46 46 45 44 43 44 45 46 45 44 44 45 45 46 46 46 46 46 46
55 56 55 52 53 55 53 52 52 54 55 53 53 54 53 51 50 50 52 52 52 51 53 52 51 50 50 49 48 49 50 50 50 49 48 48 48 49 49 47 41 36 37 35 38 40 34 35 34 33 38 41 42 44 43 44 50 50 48 50 46 44 46 47 46 45 45 44 44 44 42 43 44 46 44 45 45 45 46 46 47 46 45 45 45
54 52 51 51 51 51 50 51 51 50 50 52 51 49 48 48 50 51 51 51 51 51 51 52 52 50 50 51 51 51 49 47 47 48 49 48 48 48 48 50 46 40 38 38 36 39 40 37 38 34 35 37 32 30 33 31 43 46 46 49 47 46 48 46 46 45 45 45 44 43 43 44 43 44 44 46 45 43 43 44 44 44 44 44 45
53 52 51 51 50 49 50 50 49 49 50 50 48 48 48 50 50 50 49 50 50 50 51 50 49 49 49 49 50 48 48 47 46 47 48 48 47 47 47 46 45 45 42 40 37 38 44 40 37 35 35 37 34 32 33 33 35 46 42 47 47 49 45 42 46 46 45 45 45 44 47 48 44 43 43 43 42 43 44 43 43 43 44 44 44
52 51 51 50 49 50 48 49 48 49 49 47 49 49 50 49 48 48 48 49 50 49 50 50 50 49 50 50 50 50 50 48 47 47 45 45 47 48 48 47 45 42 39 38 37 38 39 46 42 39 41 38 34 32 30 34 35 36 41 41 46 44 41 42 41 45 45 45 44 44 45 44 41 41 40 40 41 42 42 43 44 43 43 43 44
52 52 50 49 49 48 47 47 48 49 49 49 50 49 47 46 46 50 49 48 49 50 50 48 50 52 50 48 49 50 48 47 47 43 45 43 44 44 45 46 46 47 44 42 40 38 37 41 40 42 40 42 35 36 36 39 40 42 37 39 44 41 40 44 40 42 44 44 44 44 44 44 43 42 40 40 41 41 42 42 41 41 43 42 43
51 51 49 50 49 47 48 47 46 47 47 49 51 48 48 48 50 50 49 49 50 48 48 49 49 49 48 48 49 50 50 47 47 46 44 43 44 45 46 46 46 47 45 41 41 41 39 40 42 38 40 45 40 36 40 42 43 42 41 40 38 41 41 43 43 42 42 44 44 43 44 43 43 43 42 42 42 41 41 42 42 41 40 42 43
50 53 49 49 48 49 47 46 46 47 50 50 48 48 50 50 49 49 49 50 49 48 48 48 48 48 48 48 48 49 48 46 47 47 49 48 45 45 46 47 46 47 48 46 42 44 42 41 42 37 41 42 45 44 37 40 41 40 39 40 41 42 43 42 42 41 41 43 43 43 43 43 43 43 42 42 42 42 42 42 42 41 41 42 42
51 52 48 49 49 49 48 47 47 48 48 48 47 49 51 50 47 47 48 49 48 48 47 48 51 48 48 47 48 50 49 46 49 46 47 49 49 47 46 46 45 48 48 47 47 48 44 41 42 40 42 44 43 41 38 37 39 39 41 42 42 43 44 45 43 40 42 43 43 43 42 42 42 42 42 42 42 42 42 42 42 42 42 42 42
52 50 46 49 48 49 48 47 47 48 47 48 48 49 49 50 49 49 48 49 50 48 47 48 48 48 47 47 49 49 48 47 48 49 50 49 49 48 46 45 48 50 48 47 47 47 45 44 43 42 44 43 43 44 40 40 40 43 42 43 43 44 43 42 43 42 44 41 43 43 44 42 42 42 42 42 42 42 41 42 42 43 42 42 42
54 51 46 48 49 48 47 48 48 47 48 48 47 47 47 49 48 49 49 50 50 48 48 49 48 49 48 48 48 49 49 50 50 50 50 50 50 50 50 48 47 48 48 48 47 48 44 43 44 45 43 44 44 41 40 42 43 42 42 42 42 43 44 42 42 42 43 44 42 39 41 42 43 42 41 40 39 40 40 41 42 43 43 42 41
53 52 51 51 50 49 46 47 47 47 47 48 48 47 47 49 48 50 48 49 50 49 48 49 49 50 49 48 49 51 52 52 50 50 50 49 49 50 50 50 50 49 49 48 46 46 46 46 44 42 44 43 42 44 46 43 41 41 42 42 41 40 41 42 41 41 43 42 39 39 39 39 38 38 39 39 40 40 42 43 43 44 43 42 41
53 52 53 51 51 48 50 49 48 48 47 48 50 48 48 50 48 50 49 48 49 50 48 50 49 50 52 52 53 52 53 55 53 52 52 52 50 48 48 50 49 48 49 49 49 47 46 45 44 44 44 44 44 43 43 43 42 40 42 42 41 41 41 41 41 41 40 38 38 37 36 38 36 37 37 37 37 42 42 43 44 43 43 41 41
53 52 51 50 49 50 49 51 50 50 49 49 50 48 48 49 50 50 51 49 50 50 49 50 50 50 53 53 54 57 54 51 47 44 44 46 49 48 48 49 49 48 48 48 48 48 46 45 44 43 43 43 43 43 43 43 43 43 42 41 39 40 40 39 39 41 40 37 37 35 35 37 39 38 38 38 40 42 41 43 43 42 42 41 41
54 56 56 55 54 54 54 53 52 53 53 53 44 43 45 46 50 50 51 51 51 51 50 50 52 53 53 53 51 52 51 50 46 42 41 41 41 41 42 45 49 48 47 48 47 47 46 45 45 44 44 43 43 44 43 43 42 41 40 39 40 39 38 37 36 38 41 38 37 35 34 36 38 37 38 39 40 41 42 43 41 41 41 41 41
54 55 56 55 54 54 54 53 52 53 53 51 46 46 45 46 48 51 51 52 52 52 52 52 55 53 53 54 52 52 51 50 48 45 43 40 38 38 37 37 38 39 45 47 46 44 44 45 45 44 44 44 43 43 42 41 40 41 41 40 39 38 37 36 35 35 38 39 36 35 35 36 38 40 39 39 40 42 42 41 39 39 41 42 42
54 54 55 54 54 54 54 53 52 52 52 50 47 46 46 45 45 48 53 52 52 53 54 54 54 53 53 54 54 54 55 54 53 50 47 43 40 38 38 38 37 36 37 39 41 43 45 45 46 45 44 44 43 42 43 42 42 40 38 38 37 36 36 34 35 35 34 37 35 34 34 35 38 38 38 40 41 42 40 39 39 39 39 40 41
54 54 54 55 54 53 52 52 52 52 52 50 46 45 44 44 44 47 52 54 53 54 53 54 53 53 52 52 53 53 54 55 53 52 50 46 42 40 40 41 38 37 36 36 37 40 44 46 46 46 46 45 43 42 41 41 40 38 36 35 35 34 34 33 34 36 36 37 35 34 34 36 38 37 36 35 39 38 38 38 38 39 39 39 39
54 53 53 53 53 53 52 51 52 52 53 48 45 43 42 43 43 44 49 52 54 54 54 54 54 54 53 53 53 54 53 54 54 53 52 48 46 45 44 44 39 40 44 45 46 48 48 48 47 45 44 43 40 39 39 39 38 37 37 33 33 32 34 35 34 35 34 36 36 35 32 34 35 33 34 34 36 34 35 37 39 39 39 38 38
53 53 53 54 54 54 53 52 52 53 54 48 44 43 42 42 43 47 49 50 52 53 52 55 55 55 54 54 53 54 54 54 51 48 49 49 48 46 45 44 42 38 36 36 36 41 45 44 41 38 37 38 38 35 37 36 36 36 38 37 36 35 34 33 32 33 34 36 35 34 33 33 34 33 33 34 34 32 34 35 37 39 39 38 38
52 53 54 54 55 54 53 53 53 53 53 50 45 44 43 42 45 48 48 50 51 52 52 53 54 55 55 55 54 53 54 54 49 44 45 46 48 47 46 45 42 38 35 36 36 35 36 36 36 35 35 35 35 35 36 36 35 35 35 34 33 34 34 32 34 33 34 34 34 35 33 32 33 33 33 34 33 33 35 34 34 37 37 37 37
50 52 54 55 54 55 54 54 54 54 54 51 47 45 44 43 46 51 50 50 50 50 51 52 53 54 54 54 54 55 54 54 46 43 42 46 48 47 46 45 43 40 38 39 38 37 36 35 35 35 35 35 35 35 35 35 36 38 34 32 33 34 34 34 32 33 34 34 34 35 32 31 33 33 33 33 33 33 34 33 34 34 36 36 36
44 45 48 53 55 55 55 55 54 54 54 52 48 45 44 43 45 50 51 51 49 50 52 52 52 52 51 51 49 50 53 52 44 43 41 46 49 47 46 45 44 41 39 39 37 37 39 38 37 37 35 35 36 35 37 36 36 39 37 37 36 35 34 34 34 33 31 31 34 34 31 31 32 32 32 31 30 32 34 34 34 33 34 34 35